Vorticity
nan nan nan nan nan nan nan nan nan nan nan nan nan nan nan nan nan nan nan nan nan nan nan nan nan nan nan nan nan nan nan nan nan nan nan nan nan nan nan nan nan nan nan nan
nan 9 7 8 5 7 8 8 4 11 8 8 17 10 8 6 6 5 5 7 6 9 11 8 7 8 9 6 5 7 8 8 5 6 8 8 9 9 9 10 12 11 8 nan
nan 5 9 5 4 10 11 13 7 8 2 7 10 6 12 9 9 9 12 10 7 7 6 6 5 6 7 6 7 8 9 7 6 6 6 7 7 9 9 11 11 10 8 nan
nan 8 8 6 7 9 7 14 8 12 7 5 3 8 13 20 5 7 11 9 8 8 7 6 5 7 7 7 7 9 8 7 7 7 6 9 8 7 8 10 10 9 7 nan
nan 11 10 9 6 5 7 12 18 12 3 1 5 14 12 10 7 10 12 9 7 9 8 6 6 6 7 8 8 7 6 6 9 9 8 8 8 9 11 10 9 6 8 nan
nan 5 11 9 12 5 11 8 7 10 11 10 11 1 9 14 8 1 8 15 8 9 10 7 6 8 9 7 7 8 7 6 9 10 10 9 7 7 7 8 8 8 9 nan
nan 10 4 10 11 9 12 10 8 7 11 10 14 5 12 13 9 10 12 10 8 9 9 9 6 8 11 8 6 7 7 7 9 8 8 8 8 8 6 7 8 8 7 nan
nan 14 11 8 10 11 6 8 7 8 6 15 11 6 18 23 15 9 14 13 8 9 10 8 6 6 9 8 6 6 7 8 6 7 8 8 8 7 9 9 8 8 8 nan
nan 9 13 9 11 7 6 11 10 4 7 12 3 5 18 23 20 12 11 12 13 10 10 8 6 7 8 8 8 7 6 7 6 5 8 9 8 9 9 9 7 8 8 nan
nan 13 9 14 10 11 17 0 4 13 15 4 8 12 11 13 15 10 9 8 14 11 9 9 8 8 7 8 9 8 8 7 6 6 6 7 8 8 9 9 8 7 7 nan
nan 6 4 10 10 6 6 9 11 16 8 9 9 10 18 16 11 10 6 6 11 13 10 8 7 8 9 8 9 8 8 7 6 7 6 6 8 8 8 8 8 7 7 nan
nan 5 13 3 8 14 12 8 7 7 7 9 12 7 19 21 13 11 11 10 10 14 10 9 10 9 9 9 9 9 8 7 8 7 8 7 8 9 8 9 9 8 8 nan
nan 6 7 6 14 21 13 9 6 6 16 13 4 10 10 10 16 14 12 12 13 14 13 12 10 10 10 9 8 10 9 8 8 9 7 8 10 9 9 9 9 9 9 nan
nan 10 17 9 3 6 7 9 9 7 7 12 4 11 8 11 9 9 11 11 11 13 16 11 9 9 10 11 9 8 9 9 8 9 8 8 8 9 9 9 9 9 9 nan
nan 3 12 13 10 7 13 4 7 9 12 9 13 10 8 10 12 11 8 7 10 9 14 14 9 10 10 9 9 9 10 10 11 8 8 8 7 8 8 8 8 8 8 nan
nan 13 13 8 14 16 14 14 6 2 8 9 17 9 17 10 7 13 12 7 9 13 12 13 15 14 11 8 9 11 10 9 7 10 7 7 10 8 8 7 8 8 8 nan
nan 11 10 18 12 9 5 16 13 10 11 12 9 13 9 11 12 10 10 12 10 11 12 13 13 13 13 12 11 12 10 12 10 6 7 9 8 7 9 8 8 8 10 nan
nan 8 11 15 9 9 7 10 13 8 3 13 17 25 14 9 9 9 9 11 10 9 9 9 10 14 15 10 8 11 16 12 9 8 8 9 8 9 9 9 8 7 11 nan
nan 12 13 14 11 5 7 12 11 2 5 13 18 16 17 9 7 11 13 11 11 7 8 10 9 13 19 16 14 12 10 10 9 10 8 9 10 10 8 8 9 8 9 nan
nan 13 12 11 14 8 1 2 11 12 3 13 16 12 10 9 9 7 15 16 11 10 9 9 9 12 16 18 17 12 9 8 10 10 10 7 9 9 8 9 10 9 11 nan
nan 10 11 12 8 8 9 12 15 9 9 9 10 9 13 15 8 11 11 12 14 11 6 6 13 12 11 14 14 11 12 11 11 12 13 14 17 14 7 9 10 12 10 nan
nan 9 9 11 9 1 10 26 18 7 11 11 12 11 10 8 9 10 7 9 11 9 12 14 12 15 17 16 13 11 2 8 12 14 13 11 13 19 21 15 10 12 9 nan
nan 16 9 12 8 1 7 19 10 15 11 8 9 11 11 8 10 11 7 5 6 12 16 15 14 15 14 18 15 11 12 14 11 8 10 1 1 8 15 20 14 9 8 nan
nan 11 15 8 8 10 11 6 12 14 11 12 8 9 10 8 8 11 15 15 11 12 17 19 16 11 13 13 12 9 10 8 6 4 5 12 11 8 12 14 11 9 7 nan
nan 8 7 6 12 11 8 10 8 8 7 6 9 11 6 10 11 14 14 12 12 13 16 18 16 11 10 9 9 10 10 8 9 9 9 7 7 11 9 8 12 14 15 nan
nan nan nan nan nan nan nan nan nan nan nan nan nan nan nan nan nan nan nan nan nan nan nan nan nan nan nan nan nan nan nan nan nan nan nan nan nan nan nan nan nan nan nan nan
CAPE
0 0 0 0 0 0 0 0 0 0 0 97 73 136 214 210 220 247 280 291 313 201 161 167 241 283 452 602 691 660 947 1309 1689 1546 1522 1417 1254 960 965 853 1013 1051 755 906
0 0 0 0 0 0 0 0 0 0 0 0 100 146 168 241 351 390 413 497 494 515 268 306 509 668 660 674 725 1109 928 1505 1529 1520 1183 1327 1263 1233 1237 1359 1538 1025 905 973
0 0 0 0 0 0 0 0 0 0 3 3 80 76 106 209 256 207 371 542 449 667 450 436 587 610 814 807 1181 1247 1409 1508 1515 1529 1417 1610 1326 1012 809 754 776 201 12 39
0 0 0 0 0 0 0 0 0 16 23 6 25 38 6 74 14 56 135 238 379 467 757 743 705 521 818 1134 1596 1514 1807 1946 1819 1496 1831 1593 674 196 37 165 110 0 0 0
0 0 0 0 0 0 0 0 0 43 28 6 14 15 37 0 0 0 57 162 262 253 874 950 855 688 951 1385 1934 1791 1959 2108 2110 1478 1800 357 0 0 4 0 0 0 0 0
0 0 0 0 0 0 0 0 0 0 0 7 9 6 0 2 16 0 1 215 188 207 758 1022 1072 552 1261 1556 1977 2118 1769 1577 932 357 30 0 0 0 0 0 0 0 0 0
0 0 0 0 0 0 0 0 0 0 0 0 0 19 0 0 13 1 0 135 182 185 239 634 535 624 1468 1721 1702 1978 1603 1146 18 0 0 0 0 0 0 0 0 0 0 0
0 0 0 0 0 0 0 0 0 0 0 0 0 0 0 10 14 2 1 106 165 125 147 245 166 471 1223 1604 1560 1750 1173 770 0 0 0 0 0 0 0 0 0 0 0 0
0 0 0 0 0 0 0 0 0 0 0 0 0 0 0 2 13 0 0 0 63 91 146 190 251 460 924 1319 1536 1692 910 443 14 0 0 0 0 1 0 0 0 0 0 0
0 0 0 0 0 0 0 0 0 0 0 0 0 0 0 31 28 15 0 0 0 46 155 184 259 452 1062 1189 1563 1705 923 528 117 8 0 0 8 11 0 0 0 0 0 0
0 0 0 0 0 0 0 0 0 0 0 0 0 0 0 32 22 27 17 15 0 21 38 195 269 392 1094 1200 1463 1711 1103 762 246 152 0 19 72 14 1 0 0 0 0 0
0 0 0 0 0 0 0 0 0 0 0 0 0 0 0 0 0 13 36 38 1 0 41 88 166 235 825 1063 1477 1611 1377 1015 593 362 123 159 236 66 21 16 2 0 0 0
0 0 0 0 0 0 0 0 0 0 0 0 0 0 0 0 0 0 0 0 0 0 0 29 37 117 501 883 1354 1481 1482 1245 858 580 248 65 30 14 26 28 8 0 0 0
0 0 0 0 0 0 0 0 0 0 0 0 0 0 0 0 0 0 0 0 0 0 0 22 65 58 379 817 1182 1420 1441 1319 836 543 395 15 0 0 11 25 9 0 0 0
0 0 0 0 0 0 0 0 0 0 0 0 0 0 0 0 0 0 0 7 10 4 15 3 153 205 535 779 1018 1316 1387 1137 673 574 374 70 5 0 0 9 0 0 0 0
0 0 0 0 0 0 0 0 0 0 0 0 0 0 0 0 0 0 6 7 0 51 571 47 218 572 873 931 1062 1076 1098 998 578 418 377 164 85 23 12 28 27 11 16 4
0 0 0 0 0 0 0 0 0 0 0 0 0 0 0 0 6 0 0 0 0 1 29 685 632 800 1105 1227 1105 816 757 604 369 281 244 191 155 83 95 127 72 75 58 16
0 0 0 0 0 0 0 0 12 14 10 2 0 0 0 0 0 0 0 0 0 0 0 0 611 752 1168 1536 1173 615 223 281 253 177 254 324 323 241 223 156 130 158 209 191
17 4 10 0 0 0 21 26 18 24 29 15 24 18 0 0 11 33 0 0 0 0 0 0 16 365 802 1354 1020 246 199 200 196 164 217 363 450 402 273 221 214 288 246 159
40 3 49 5 3 3 6 77 60 36 70 44 55 3 14 17 50 64 7 0 0 15 73 225 313 1274 1081 1070 441 365 234 140 141 184 293 366 399 362 282 279 383 447 440 227
72 84 9 0 0 0 20 118 67 39 70 47 0 0 31 111 66 9 0 38 49 196 384 472 1447 1674 1031 493 513 329 171 266 192 204 187 231 523 375 338 437 658 629 269 0
194 179 4 10 5 21 19 134 295 71 26 0 1 3 2 0 3 5 0 0 0 0 174 411 1449 1648 866 551 637 322 242 124 150 65 33 0 0 179 679 887 669 134 38 13
159 37 190 209 36 4 0 0 0 0 0 0 0 0 29 36 78 19 8 0 0 0 3 271 866 1164 777 738 140 3 0 0 2 0 15 0 0 0 0 180 329 151 16 0
63 192 85 0 0 11 0 0 0 0 0 0 0 0 0 8 130 123 198 704 879 750 515 1111 459 161 0 1 0 0 39 0 0 0 0 0 0 0 47 178 115 82 76 13
172 140 241 145 84 0 0 0 0 0 0 0 0 0 0 121 1274 1480 1129 896 478 252 192 306 384 40 0 0 0 0 0 0 0 0 0 2 14 104 27 0 0 0 0 0
36 258 179 143 69 0 0 0 0 0 0 0 0 0 0 0 961 1470 1159 667 284 204 117 59 147 26 0 0 0 0 0 0 0 0 0 1 166 33 0 0 1 0 0 0